星链-5675 (STARLINK-5675 )

导读

STARLINK-5675是美国SpaceX星链星座的卫星,于2023年1月26日发射升空,归属星链低轨互联网卫星组网序列。它工作在近地轨道,承担全球互联网覆盖服务任务,属于SpaceX批量发射的星链卫星之一,服务包括偏远地区网络接入、移动网络互联等应用场景,支撑星链星座全球通信网络的构建。

基本信息
目录编号:
55340
目录名称:
STARLINK-5675
国际标识:
2023-013K
轨道中心:
EARTH
卫星名称:
星链-5675
卫星全名:
星链-5675 (STARLINK-5675 )
卫星状态:
在轨 (已飞行1324 天)
发射日期:
2023-01-26 UTC
国别 :
美国 (US)
星等 :
--
该卫星已列入 空间交会检测服务 Space Conjunction Data Service (SCDS) ,当前飞行风险评估等级: 无高风险
轨道信息
数据来源 国际轨道数据
星历时间: 2026-09-11T13:45:13+0800
10小时前
查看轨道信息
半长轴: 6861.192km
偏心率: 0.0001373
轨道倾角: 43.002°
近地点辐角 269.042°
升交点赤经 335.287°
平近点角 91.027°
近地点: 482.112km
远地点: 483.998km
周期: 94.267分钟
每日圈数: 15.275781
详细信息
固有亮度:
5
最大亮度:
2.5
卫星平台:
Starlink v1.5
覆盖范围:
全球
运营商:
太空探索技术公司
运营商所在国:
美国
制造商(研发单位):
太空探索技术公司
制造商所在国:
美国
使用方式:
暂无
卫星简介
星链(Starlink)计划是由太空探索技术公司(SpaceX)提出的一个巨型低轨卫星互联网星座项目,计划在2019年至2024年间在太空搭建由约1.2万颗卫星组成的“星链”网络,其中1584颗将部署在地球上空550千米处的近地轨道,并从2020年开始工作。该卫星仍在工作。
2D轨道图
3D轨道图
轨道高度分析图
轨道倾角分析图
轨道综合分析图
查看轨道综合分析图
交会数据列表
事件ID 空间交会对象 最接近时刻(TCA) 交会距离 交会风险概率(CRP) 交会风险指数(CRI) 操作
CDM_260913-124605-534006-215821
2026-09-13T
12:46:45+0000
0.222 km
中距离
6.295843E-4 高风险 0.91
CDM_260914-034105-534006-215821
2026-09-14T
03:41:12+0000
0.937 km
远距离
2.554919E-5 中风险 0.63
CDM_260913-142005-534006-215821
2026-09-13T
14:20:54+0000
2.087 km
极远距离
2.00757E-6 低风险 0.41
CDM_260913-111205-534006-215821
2026-09-13T
11:12:36+0000
2.418 km
极远距离
1.47271E-6 低风险 0.38
CDM_260914-051505-534006-215821
2026-09-14T
05:15:21+0000
2.714 km
极远距离
1.215939E-6 低风险 0.37
CDM_260914-020705-534006-215821
2026-09-14T
02:07:03+0000
2.982 km
极远距离
1.074994E-6 低风险 0.36
与全量物体交会距离演化趋势
与全量物体交会风险概率演化趋势